Statesboro, GA

10:36 AM EDT on April 28, 2017 (GMT -0400)
Statesboro-Bulloch County

Weather History for KTBR - November, 2011

Change the Weather History Date:

Monday, November 28, 2011

  Actual Average (KSBO) Record (KSBO)
Temperature  
Mean Temperature 62 °F -  
Max Temperature 77 °F 69 °F 77 °F (2015)
Min Temperature 46 °F 45 °F 26 °F (2013)
Degree Days  
Heating Degree Days 4    
Growing Degree Days 12 (Base 50)    
Moisture  
Dew Point 57 °F    
Average Humidity 86    
Maximum Humidity 100    
Minimum Humidity 50    
Precipitation  
Precipitation 0.00 in - - ()
Sea Level Pressure  
Sea Level Pressure 29.88 in    
Wind  
Wind Speed 7 mph (South)    
Max Wind Speed 24 mph    
Max Gust Speed 32 mph    
Visibility 9 miles    
Events Rain    
Averages and records for this station are not official NWS values.
T = Trace of Precipitation, MM = Missing Value Source: NWS Daily Summary

Daily Weather History Graph

Daily Weather History Graph

Search for Another Location

Airport or City:

Trip Planner

Search our weather history database for the weather conditions in past years. The results will help you decide how hot, cold, wet, or windy it might be!

Date:

Astronomy

Nov. 28, 2011 Rise Set
Actual Time 7:07 AM EST 5:21 PM EST
Civil Twilight 6:41 AM EST 5:48 PM EST
Nautical Twilight 6:11 AM EST 6:18 PM EST
Astronomical Twilight 5:41 AM EST 6:48 PM EST
Moon 10:18 AM EST 9:04 PM EST
Length of Visible Light 11h 07m
Length of Day
10h 13m
Waxing Crescent, 15% of the Moon is Illuminated
Nov 28
Waxing Crescent
Dec 2
First Quarter
Dec 10
Full
Dec 17
Last Quarter
Dec 24
New

Hourly Weather History & Observations

Time (EST) Temp. Windchill Dew Point Humidity Pressure Visibility Wind Dir Wind Speed Gust Speed Precip Events Conditions
12:15 AM 68.0 °F - 59.0 °F 73% 29.96 in 10.0 mi SE 5.8 mph - N/A   Overcast
12:35 AM 68.0 °F - 59.0 °F 73% 29.96 in 10.0 mi SSE 3.5 mph - N/A   Mostly Cloudy
12:55 AM 68.0 °F - 59.0 °F 73% 29.95 in 10.0 mi SE 6.9 mph - N/A   Mostly Cloudy
1:15 AM 66.2 °F - 59.0 °F 78% 29.95 in 10.0 mi SSE 4.6 mph - N/A   Mostly Cloudy
1:35 AM 66.2 °F - 60.8 °F 83% 29.95 in 10.0 mi SE 5.8 mph - N/A   Mostly Cloudy
1:55 AM 66.2 °F - 60.8 °F 83% 29.94 in 10.0 mi SE 5.8 mph - N/A   Overcast
2:15 AM 64.4 °F - 60.8 °F 88% 29.94 in 10.0 mi SSE 3.5 mph - N/A   Scattered Clouds
2:35 AM 64.4 °F - 60.8 °F 88% 29.93 in 10.0 mi SSE 5.8 mph - N/A   Scattered Clouds
2:55 AM 64.4 °F - 60.8 °F 88% 29.93 in 10.0 mi SSE 4.6 mph - N/A   Scattered Clouds
3:15 AM 64.4 °F - 60.8 °F 88% 29.92 in 10.0 mi SSE 4.6 mph - N/A   Scattered Clouds
3:35 AM 64.4 °F - 60.8 °F 88% 29.92 in 10.0 mi SE 4.6 mph - N/A   Clear
3:55 AM 64.4 °F - 60.8 °F 88% 29.91 in 10.0 mi SSE 5.8 mph - N/A   Clear
4:15 AM 64.4 °F - 60.8 °F 88% 29.91 in 10.0 mi SE 3.5 mph - N/A   Clear
4:35 AM 64.4 °F - 62.6 °F 94% 29.90 in 10.0 mi SE 3.5 mph - N/A   Clear
4:55 AM 62.6 °F - 62.6 °F 100% 29.90 in 10.0 mi SE 3.5 mph - N/A   Clear
5:15 AM 62.6 °F - 62.6 °F 100% 29.90 in 10.0 mi SE 4.6 mph - N/A   Clear
5:35 AM 62.6 °F - 62.6 °F 100% 29.89 in 10.0 mi SE 4.6 mph - N/A   Clear
5:55 AM 62.6 °F - 62.6 °F 100% 29.90 in 10.0 mi SE 4.6 mph - N/A   Clear
6:35 AM 62.6 °F - 62.6 °F 100% 29.90 in 10.0 mi SE 4.6 mph - N/A   Scattered Clouds
6:55 AM 62.6 °F - 62.6 °F 100% 29.90 in 10.0 mi SE 3.5 mph - N/A   Scattered Clouds
7:55 AM 64.4 °F - 64.4 °F 100% 29.90 in 10.0 mi SE 4.6 mph - N/A   Mostly Cloudy
8:15 AM 64.4 °F - 64.4 °F 100% 29.90 in 10.0 mi SE 5.8 mph - N/A   Overcast
8:55 AM 66.2 °F - 64.4 °F 94% 29.90 in 10.0 mi SE 5.8 mph - N/A   Overcast
9:15 AM 68.0 °F - 66.2 °F 94% 29.90 in 10.0 mi SSE 6.9 mph - N/A   Overcast
9:35 AM 68.0 °F - 66.2 °F 94% 29.89 in 10.0 mi SE 6.9 mph - N/A   Overcast
9:55 AM 71.6 °F - 64.4 °F 78% 29.88 in 10.0 mi South 9.2 mph 16.1 mph N/A   Overcast
10:15 AM 71.6 °F - 64.4 °F 78% 29.88 in 10.0 mi South 10.4 mph 19.6 mph N/A   Overcast
10:35 AM 73.4 °F - 62.6 °F 69% 29.87 in 10.0 mi SSE 11.5 mph 19.6 mph N/A   Mostly Cloudy
10:55 AM 75.2 °F - 62.6 °F 65% 29.86 in 10.0 mi South 18.4 mph 23.0 mph N/A   Mostly Cloudy
11:15 AM 77.0 °F - 60.8 °F 57% 29.85 in 10.0 mi South 15.0 mph 31.1 mph N/A   Mostly Cloudy
11:35 AM 77.0 °F - 59.0 °F 54% 29.84 in 10.0 mi South 18.4 mph 26.5 mph N/A   Mostly Cloudy
11:55 AM 77.0 °F - 59.0 °F 54% 29.83 in 10.0 mi South 16.1 mph 25.3 mph N/A   Mostly Cloudy
12:15 PM 77.0 °F - 57.2 °F 50% 29.82 in 10.0 mi South 20.7 mph 28.8 mph N/A   Overcast
12:35 PM 77.0 °F - 57.2 °F 50% 29.81 in 10.0 mi South 19.6 mph 26.5 mph N/A   Overcast
12:55 PM 77.0 °F - 59.0 °F 54% 29.79 in 10.0 mi South 13.8 mph - N/A   Overcast
1:15 PM 77.0 °F - 59.0 °F 54% 29.79 in 10.0 mi South 13.8 mph 19.6 mph N/A   Overcast
1:35 PM 77.0 °F - 60.8 °F 57% 29.78 in 10.0 mi SSE 19.6 mph - N/A   Overcast
1:55 PM 77.0 °F - 60.8 °F 57% 29.77 in 10.0 mi South 18.4 mph 23.0 mph N/A   Overcast
2:15 PM 77.0 °F - 60.8 °F 57% 29.76 in 10.0 mi South 13.8 mph 21.9 mph N/A   Overcast
2:35 PM 64.4 °F - 55.4 °F 73% 29.80 in 10.0 mi West 24.2 mph 32.2 mph N/A   Overcast
2:55 PM 57.2 °F - 51.8 °F 82% 29.82 in 10.0 mi West 19.6 mph 26.5 mph N/A Rain Rain
3:15 PM 55.4 °F - 55.4 °F 100% 29.83 in 7.0 mi West 10.4 mph 18.4 mph N/A Rain Rain
3:35 PM 55.4 °F - 55.4 °F 100% 29.84 in 7.0 mi West 9.2 mph - N/A Rain Rain
3:55 PM 53.6 °F - 53.6 °F 100% 29.86 in 7.0 mi West 12.7 mph 20.7 mph N/A Rain Rain
4:15 PM 53.6 °F - 53.6 °F 100% 29.86 in 5.0 mi West 5.8 mph - N/A Rain Heavy Rain
4:35 PM 51.8 °F - 51.8 °F 100% 29.85 in 10.0 mi West 8.1 mph - N/A Rain Light Rain
4:55 PM 51.8 °F - 51.8 °F 100% 29.87 in 10.0 mi WSW 8.1 mph - N/A Rain Light Rain
5:15 PM 51.8 °F - 51.8 °F 100% 29.88 in 10.0 mi WSW 9.2 mph - N/A Rain Rain
5:35 PM 51.8 °F - 51.8 °F 100% 29.89 in 7.0 mi WSW 11.5 mph - N/A Rain Rain
5:55 PM 50.0 °F - 50.0 °F 100% 29.89 in 7.0 mi West 9.2 mph 18.4 mph N/A Rain Rain
6:15 PM 50.0 °F - 50.0 °F 100% 29.90 in 7.0 mi West 5.8 mph - N/A Rain Rain
6:35 PM 50.0 °F - 50.0 °F 100% 29.91 in 10.0 mi WSW 6.9 mph - N/A Rain Rain
6:55 PM 50.0 °F - 50.0 °F 100% 29.90 in 7.0 mi WNW 6.9 mph - N/A Rain Rain
7:15 PM 50.0 °F - 48.2 °F 94% 29.91 in 10.0 mi West 10.4 mph 17.3 mph N/A Rain Light Rain
7:35 PM 48.2 °F - 46.4 °F 93% 29.92 in 7.0 mi WNW 11.5 mph 16.1 mph N/A   Heavy Drizzle
7:55 PM 46.4 °F 42.4 °F 46.4 °F 100% 29.92 in 5.0 mi West 8.1 mph 17.3 mph N/A Rain Rain
8:15 PM 46.4 °F 45.2 °F 46.4 °F 100% 29.93 in 10.0 mi West 3.5 mph - N/A Rain Rain
8:35 PM 46.4 °F - 46.4 °F 100% 29.91 in 10.0 mi Calm Calm - N/A Rain Rain
8:55 PM 46.4 °F - 46.4 °F 100% 29.91 in 7.0 mi Calm Calm - N/A Rain Light Rain
9:15 PM 46.4 °F - 46.4 °F 100% 29.92 in 7.0 mi Calm Calm - N/A Rain Rain
9:55 PM 46.4 °F - 46.4 °F 100% 29.92 in 10.0 mi Calm Calm - N/A   Overcast
10:15 PM 46.4 °F - 46.4 °F 100% 29.92 in 10.0 mi Calm Calm - N/A   Light Drizzle
10:35 PM 46.4 °F - 46.4 °F 100% 29.92 in 10.0 mi Calm Calm - N/A   Overcast
10:55 PM 46.4 °F - 46.4 °F 100% 29.92 in 10.0 mi Calm Calm - N/A   Overcast
11:15 PM 46.4 °F - 46.4 °F 100% 29.91 in 10.0 mi Calm Calm - N/A   Overcast
11:55 PM 46.4 °F - 46.4 °F 100% 29.91 in 10.0 mi Calm Calm - N/A   Scattered Clouds